Weather in Paipa

Colombia     5°46′59″N   73°07′04″W
temp.,
°C
wind,
m/s
gust,
m/s
humid.,
%
clouds,
%
prec.,
mm/h
press.,
hPa
HPBL,
m
23 april, fri
fri2301:00+10ese118755 0.1 101752
04:00+10e118796 0.0 101652
07:00+11se118353 0.0 1018304
10:00+15sse116193 0.1 10161305
13:00+16ssw226299 0.3 10141043
16:00+16ne116533 0.4 1012853
19:00+11sw118667 1.1 101521
22:00+12ese118967 0.4 101833
24 april, sat
sat2401:00+11sse119086 0.8 101620
04:00+11se118939 0.5 101629
07:00+11e228336 0.6 1018191
10:00+16e225731 0.1 10161430
13:00+19s325067 0.1 10111855
16:00+17w2265100 0.4 1011920
19:00+13se118697 1.5 101568
22:00+12sse1190100 0.9 101776
25 april, sun
sun2501:00+11e0192100 2.3 101687
04:00+11e119295 0.9 1016105
07:00+11ene228526 1.3 1018291
10:00+16e116043 0.1 10161348
13:00+19s325282 0.3 10121856
16:00+16nw227296 0.8 1012652
19:00+12ssw119038 2.1 101634
22:00+12ssw1190100 0.6 101749
26 april, mon
mon2601:00+11s119186 0.9 101653
04:00+11e119096 0.3 101519
07:00+12e128558 0.3 1017199
10:00+17s016084 0.1 10151387
13:00+17sse3259100 0.3 10111079
16:00+17wnw116798 1.0 1010928
19:00+12ssw118768 2.8 101435
22:00+12ssw008987 0.8 101630
27 april, tue
tue2701:00+12ssw009199 1.3 101532
04:00+10wsw0093100 0.1 101528
07:00+12ese1185100 0.2 1016200
10:00+16se116299 0.1 10141119
13:00+17ssw0158100 0.4 10101224
16:00+15wnw127896 1.4 1010394
19:00+12sw228778 4.2 101336
22:00+11ese1295100 2.4 1016138